Regional Weather Roundup
Issued by NWS

Home | Current Version | Previous Version | Text Only | Print | Product List | Glossary On
Versions: 1 2 3 4 5 6 7 8 9 10 11 12 13 14 15 16 17 18 19 20 21 22 23 24 25 26 27 28 29 30 31 32 33 34 35 36 37 38 39 40 41 42 43 44 45 46 47 48 49 50
126
ASUS42 KFFC 060910
RWRGA
WEATHER ROUNDUP FOR GEORGIA
NATIONAL WEATHER SERVICE PEACHTREE CITY GA
400 AM EST TUE DEC 06 2016

NOTE: "FAIR" INDICATES FEW OR NO CLOUDS BELOW 12,000 FEET WITH NO
SIGNIFICANT WEATHER AND/OR OBSTRUCTIONS TO VISIBILITY.

* = USE WITH CAUTION. THE STATIONS MARKED WITH AN ASTERISK MAY NOT
REPORT WEATHER SUCH AS PRECIPITATION, FOG, OR THUNDER AND ARE NOT
QUALITY CONTROLLED BY NWS.

THE REMARK "TC" DENOTES TEMPERATURE READING IN DEGREES CELSIUS.

GAZ001>058-061000-
NORTH GEORGIA

CITY           SKY/WX    TMP DP  RH WIND       PRES   REMARKS
ATLANTA        LGT RAIN  53  53 100 E15       29.79S VSB 1/2
ATHENS         CLOUDY    52  51  97 NE12      29.80F FOG
CHAMBLEE       CLOUDY    51  49  92 VRB6      29.79F FOG
PEACHTREE CITY LGT RAIN  53  52  96 E8        29.79R FOG
ROME           LGT RAIN  53  51  93 SE6       29.74F
WEST ATLANTA   LGT RAIN  65  50  58 E7        29.78F
GAINESVILLE    LGT RAIN  50  50 100 E15G23    29.82F FOG
CARTERSVILLE   RAIN      52  51  97 E12       29.76F FOG


CITY           SKY/WX    TMP DP  RH WIND       PRES   REMARKS
DALTON*        RAIN      50  50 100 CALM      29.75F
MARIETTA       LGT RAIN  52  50  93 E10       29.76F FOG
CANTON*        DRIZZLE   50  46  87 E13G18    29.79F
$$

GAZ059>098-102>109-061000-
CENTRAL GEORGIA

CITY           SKY/WX    TMP DP  RH WIND       PRES   REMARKS
AUGUSTA-BUSH   LGT RAIN  57  54  89 N8        29.78F
AUGUSTA-DANIEL LGT RAIN  55  52  89 NE9       29.78F
COLUMBUS       CLOUDY    55  54  96 E5        29.74R
MACON          CLOUDY    56  55  97 NE5       29.75F FOG
ROBINS AFB     CLOUDY    57  57 100 E5        29.74R


CITY           SKY/WX    TMP DP  RH WIND       PRES   REMARKS
LAGRANGE*      CLOUDY    55  55 100 CALM      29.74F
SYLVANIA*      RAIN     N/A N/A N/A SE7       29.84F
MILLEDGEVILLE* CLOUDY    55  55 100 CALM      29.79F
$$

GAZ099>101-110>166-061000-
SOUTH GEORGIA

CITY           SKY/WX    TMP DP  RH WIND       PRES   REMARKS
SAVANNAH       RAIN      58  56  93 NE7       29.84F
VALDOSTA       CLOUDY    71  71 100 S8        29.78S
ALMA           LGT RAIN  59  59 100 E6        29.78F FOG
ST SIMONS      LGT RAIN  68  68 100 S7        29.80F
FT STEWART     LGT RAIN  58  57  96 CALM      29.79F
ALBANY         LGT RAIN  65  65 100 SE6       29.75F
HUNTER AFB     LGT RAIN  59  59 100 E8        29.81F FOG
MOODY AFB      LGT RAIN  72  70  94 S10       29.76S
BRUNSWICK      LGT RAIN  68  68 100 SE7       29.80F


CITY           SKY/WX    TMP DP  RH WIND       PRES   REMARKS
BAINBRIDGE*    LGT RAIN  66  64  94 CALM      29.74F
MOULTRIE*      DRIZZLE   66  64  94 CALM      29.76S
VIDALIA*       CLOUDY    59  59 100 E6        29.79F
WAYCROSS*      CLOUDY    70  70 100 NW8       29.79R
DOUGLAS*       CLOUDY    61  59  94 CALM      29.80R
$$




USA.gov is the U.S. government's official web portal to all federal, state and local government web resources and services.